Location: Morosaglia
(42.4360°N, 9.3069°E)
Time: 12:37:20
(UTC+00:00)

Cosmos 2322 Rocket - Pass Details

Date: 07 June 2020
Orbit: 834 x 850 km, 71.0° (Epoch: 01 July)

Event Time Altitude Azimuth Distance (km) Brightness Sun altitude
Exits shadow 01:29:40 32° 200° (SSW) 1,397 2.8 -18.4°
Maximum altitude 01:32:23 86° 114° (ESE) 842 2.1 -18.1°
Drops below altitude 10° 01:38:02 10° 25° (NNE) 2,452 5.9 -17.6°
Sets 01:40:28 0° 25° (NNE) 3,389 7.0 -17.3°
